Regional Weather Roundup
Issued by NWS

Home | Current Version | Previous Version | Graphics & Text | Print | Product List | Glossary On
Versions: 1 2 3 4 5 6 7 8 9 10 11 12 13 14 15 16 17 18 19 20 21 22 23 24 25 26 27 28 29 30 31 32 33 34 35 36 37 38 39 40 41 42 43 44 45 46 47 48 49 50
000
ASUS43 KFSD 051910
RWRSD

WEATHER ROUNDUP FOR SOUTH DAKOTA
NATIONAL WEATHER SERVICE SIOUX FALLS SD
100 PM CST FRI FEB 05 2016

NOTE: "FAIR" INDICATES FEW OR NO CLOUDS BELOW 12,000 FEET WITH NO
SIGNIFICANT WEATHER AND/OR OBSTRUCTIONS TO VISIBILITY.


SDZ001>005-009-010-012>017-052000-
NORTHWEST AND NORTH CENTRAL SOUTH DAKOTA

CITY           SKY/WX    TMP DP  RH WIND       PRES   REMARKS
BUFFALO          N/A     39  23  52 NW22      30.12F
FAITH            N/A     36  21  54 NW18      30.18F
MOBRIDGE       SUNNY     37  25  61 NW13      30.15F
$$

SDZ012>016-024>037-041>051-057-063-072>074-052000-
SOUTHWEST AND SOUTH CENTRAL SOUTH DAKOTA

CITY           SKY/WX    TMP DP  RH WIND       PRES   REMARKS
RAPID CTY ARPT SUNNY     37  24  59 N20G28    30.21F
PIERRE         CLOUDY    36  29  75 N16       30.18S
CUSTER         SUNNY     32   9  38 N17G29    30.16R WCI  21
ELLSWORTH AFB  SUNNY     37  24  60 N20G26    30.19S
PHILIP         PTSUNNY   37  27  67 N15       30.22F
PINE RIDGE     PTSUNNY   34  25  69 W8        30.23F WCI  27
SPEARFISH      FAIR      34  19  55 W17       30.21F WCI  23
WINNER         LGT SNOW  35  31  85 NW18      30.18S FOG     WCI  24
$$

SDZ004>011-016>023-039-040-052000-
NORTHEAST SOUTH DAKOTA

CITY           SKY/WX    TMP DP  RH WIND       PRES   REMARKS
ABERDEEN       CLOUDY    34  28  79 NW5       30.15F WCI  30
WATERTOWN      CLOUDY    26  19  74 SW9       30.12F WCI  17
BROOKINGS        N/A     27  20  75 SW10      30.13  WCI  17
SISSETON         N/A     30  26  85 NW6       30.14F WCI  24
$$

SDZ017-020-022-023-036>040-048>070-052000-
SOUTHEAST SOUTH DAKOTA

CITY           SKY/WX    TMP DP  RH WIND       PRES   REMARKS
SIOUX FALLS    CLOUDY    27  23  85 S17       30.16F WCI  14
HURON          FLURRIES  29  24  82 NW7       30.16S WCI  22
CHAMBERLAIN    LGT SNOW  32  31  96 NW8       30.17S WCI  25
MITCHELL       CLOUDY    32  25  75 NW5       30.16F WCI  27
YANKTON        CLOUDY    32  25  74 S9        30.17F WCI  24
$$

ABBREVIATIONS USED IN REMARKS
   TC - TEMPERATURE IN CELSIUS
  WCI - WIND CHILL INDEX
   HX - HEAT INDEX
  VSB - VISIBILITY




USA.gov is the U.S. government's official web portal to all federal, state and local government web resources and services.